DW9852 Weather Reports


Display with metric or nautical units.
time (UTC)temp
F
wind
direction
speed
MPH
gust
MPH
rain 1hr
in
rain 24hr
in
rain mn
in
humidity
%
barometer
mb
20260506051037 76 0 1.0 6.0 0.00 0.00 0.00 90 1010.7
20260506050539 76 214 1.0 6.0 0.00 0.00 0.00 89 1010.5
20260506050112 77 165 2.0 6.0 0.00 0.00 0.00 89 1010.3
20260506045039 76 0 1.0 6.0 0.00 0.00 0.00 89 1010.4
20260506044551 77 186 1.0 7.0 0.00 0.00 0.00 89 1010.3
20260506044104 77 215 2.0 8.0 0.00 0.00 0.00 89 1010.4
20260506043539 77 68 3.0 8.0 0.00 0.00 0.00 89 1010.4
20260506043050 77 234 2.0 8.0 0.00 0.00 0.00 89 1010.4
20260506042540 77 212 4.0 8.0 0.00 0.00 0.00 88 1010.4
20260506042042 77 198 3.0 9.0 0.00 0.00 0.00 88 1010.2
20260506041601 77 195 3.0 9.0 0.00 0.00 0.00 88 1010.3
20260506041041 77 86 3.0 8.0 0.00 0.00 0.00 88 1010.2
20260506040539 77 102 1.0 7.0 0.00 0.00 0.00 87 1010.0
20260506040049 78 193 2.0 9.0 0.00 0.00 0.00 87 1010.0
20260506035541 78 89 2.0 9.0 0.00 0.00 0.00 87 1010.1
20260506035039 78 196 2.0 10.0 0.00 0.00 0.00 87 1009.9
20260506034553 78 67 4.0 10.0 0.00 0.00 0.00 87 1010.0
20260506034039 78 203 4.0 9.0 0.00 0.00 0.00 87 1009.9
20260506033539 78 200 2.0 7.0 0.00 0.00 0.00 86 1009.7
20260506033047 79 138 3.0 7.0 0.00 0.00 0.00 86 1009.8
20260506032543 79 63 3.0 9.0 0.00 0.00 0.00 86 1009.7
20260506032039 79 183 3.0 9.0 0.00 0.00 0.00 85 1009.7
20260506031549 79 94 3.0 10.0 0.00 0.00 0.00 85 1009.8
20260506031040 79 178 2.0 10.0 0.00 0.00 0.00 85 1009.7
20260506030545 80 120 2.0 10.0 0.00 0.00 0.00 84 1009.5
20260506030050 80 157 1.0 6.0 0.00 0.00 0.00 84 1009.6
20260506025539 80 45 1.0 8.0 0.00 0.00 0.00 84 1009.5
20260506025039 80 176 2.0 9.0 0.00 0.00 0.00 84 1009.3
20260506024606 80 106 2.0 9.0 0.00 0.00 0.00 84 1009.3
20260506024040 80 34 3.0 11.0 0.00 0.00 0.00 83 1009.1
20260506023540 81 58 2.0 11.0 0.00 0.00 0.00 83 1009.0
20260506023107 81 181 2.0 7.0 0.00 0.00 0.00 82 1009.0
20260506022539 81 0 1.0 7.0 0.00 0.00 0.00 82 1009.0
20260506022041 82 136 1.0 6.0 0.00 0.00 0.00 81 1008.9
20260506021552 82 0 1.0 10.0 0.00 0.00 0.00 81 1008.9
20260506021038 82 176 1.0 10.0 0.00 0.00 0.00 80 1008.9
20260506020539 82 0 1.0 7.0 0.00 0.00 0.00 80 1008.8
20260506020056 82 40 1.0 7.0 0.00 0.00 0.00 79 1008.5
20260506015540 82 77 1.0 11.0 0.00 0.00 0.00 79 1008.5
20260506015040 83 0 2.0 12.0 0.00 0.00 0.00 78 1008.5
20260506014555 83 184 2.0 12.0 0.00 0.00 0.00 77 1008.3
20260506014041 83 50 3.0 8.0 0.00 0.00 0.00 77 1008.2
20260506013538 83 37 3.0 8.0 0.00 0.00 0.00 76 1008.2
20260506013054 84 32 2.0 8.0 0.00 0.00 0.00 75 1008.1
20260506012541 84 41 1.0 6.0 0.00 0.00 0.00 75 1008.0
20260506012041 84 62 1.0 6.0 0.00 0.00 0.00 75 1007.9
20260506011548 84 37 1.0 9.0 0.00 0.00 0.00 75 1007.9
20260506011039 84 42 3.0 9.0 0.00 0.00 0.00 75 1007.8
20260506010540 84 30 2.0 7.0 0.00 0.00 0.00 74 1007.7
20260506010048 84 0 2.0 7.0 0.00 0.00 0.00 74 1007.7
20260506005540 85 133 1.0 6.0 0.00 0.00 0.00 74 1007.7
20260506005039 85 73 2.0 6.0 0.00 0.00 0.00 73 1007.6
20260506004557 85 181 0.0 5.0 0.00 0.00 0.00 72 1007.4
20260506004039 85 0 1.0 6.0 0.00 0.00 0.00 72 1007.5
20260506003538 85 0 1.0 6.0 0.00 0.00 0.00 72 1007.5
20260506003050 85 42 2.0 6.0 0.00 0.00 0.00 71 1007.6
20260506002539 86 136 2.0 5.0 0.00 0.00 0.00 71 1007.6
20260506002037 86 61 1.0 5.0 0.00 0.00 0.00 70 1007.5
20260506001554 86 0 0.0 6.0 0.00 0.00 0.00 70 1007.5
20260506001038 87 0 0.0 6.0 0.00 0.00 0.00 69 1007.5
20260506000541 87 200 1.0 6.0 0.00 0.00 0.00 68 1007.5
20260506000057 87 62 2.0 6.0 0.00 0.00 0.00 69 1007.5
20260505235539 87 198 0.0 6.0 0.00 0.00 0.00 69 1007.5
20260505235040 87 0 2.0 6.0 0.00 0.00 0.00 68 1007.4
20260505234547 87 0 1.0 5.0 0.00 0.00 0.00 69 1007.4
20260505234039 87 124 0.0 4.0 0.00 0.00 0.00 68 1007.5
20260505233541 87 0 1.0 4.0 0.00 0.00 0.00 68 1007.4
20260505233054 87 198 0.0 3.0 0.00 0.00 0.00 68 1007.4
20260505232539 87 118 0.0 5.0 0.00 0.00 0.00 68 1007.3
20260505232039 87 213 0.0 5.0 0.00 0.00 0.00 68 1007.5
20260505231551 87 185 3.0 5.0 0.00 0.00 0.00 67 1007.4
20260505231037 88 0 1.0 3.0 0.00 0.00 0.00 67 1007.4
20260505230537 89 233 0.0 3.0 0.00 0.00 0.00 65 1007.4
20260505230112 89 252 0.0 6.0 0.00 0.00 0.00 66 1007.3
20260505225538 88 0 1.0 7.0 0.00 0.00 0.00 66 1007.4
20260505225039 88 174 2.0 7.0 0.00 0.00 0.00 66 1007.3
20260505224549 88 261 0.0 7.0 0.00 0.00 0.00 66 1007.3
20260505224039 88 203 2.0 7.0 0.00 0.00 0.00 67 1007.3
20260505223539 88 147 3.0 7.0 0.00 0.00 0.00 66 1007.5
20260505223051 87 0 2.0 6.0 0.00 0.00 0.00 68 1007.3
20260505222540 87 181 1.0 7.0 0.00 0.00 0.00 67 1007.4
20260505222043 87 0 2.0 7.0 0.00 0.00 0.00 68 1007.5
20260505221555 87 191 2.0 7.0 0.00 0.00 0.00 67 1007.5
20260505221038 87 127 0.0 7.0 0.00 0.00 0.00 69 1007.6
20260505220539 86 167 3.0 7.0 0.00 0.00 0.00 68 1007.7
20260505220054 87 110 0.0 8.0 0.00 0.00 0.00 66 1007.8
20260505215539 87 52 2.0 8.0 0.00 0.00 0.00 67 1007.8
20260505215039 88 59 1.0 6.0 0.00 0.00 0.00 66 1007.8
20260505214545 89 0 1.0 8.0 0.00 0.00 0.00 64 1007.9
20260505214038 88 0 1.0 8.0 0.00 0.00 0.00 65 1007.8
20260505213539 88 253 3.0 8.0 0.00 0.00 0.00 65 1008.1
20260505213044 88 0 2.0 6.0 0.00 0.00 0.00 67 1008.1
20260505212540 88 91 1.0 6.0 0.00 0.00 0.00 66 1008.1
20260505212039 87 231 3.0 6.0 0.00 0.00 0.00 66 1008.2
20260505211559 87 233 2.0 6.0 0.00 0.00 0.00 66 1008.3
20260505211040 87 234 0.0 9.0 0.00 0.00 0.00 68 1008.2
20260505210538 87 238 0.0 9.0 0.00 0.00 0.00 67 1008.5
20260505210056 87 208 2.0 9.0 0.00 0.00 0.00 65 1008.5
20260505205540 88 218 1.0 7.0 0.00 0.00 0.00 66 1008.6
20260505205039 87 0 1.0 7.0 0.00 0.00 0.00 67 1008.4
20260505204549 87 212 1.0 7.0 0.00 0.00 0.00 67 1008.5
20260505204039 87 0 1.0 6.0 0.00 0.00 0.00 68 1008.7
20260505203539 86 0 0.0 5.0 0.00 0.00 0.00 68 1008.7
20260505203048 86 0 1.0 5.0 0.00 0.00 0.00 68 1009.0
20260505202537 87 193 1.0 5.0 0.00 0.00 0.00 69 1009.2
20260505202039 86 270 0.0 4.0 0.00 0.00 0.00 70 1009.2
20260505201548 85 269 1.0 5.0 0.00 0.00 0.00 69 1009.2
20260505201042 85 0 0.0 5.0 0.00 0.00 0.00 69 1009.4
20260505200539 85 198 1.0 4.0 0.00 0.00 0.00 69 1009.3
20260505200043 85 0 0.0 4.0 0.00 0.00 0.00 72 1009.4
20260505195544 84 224 0.0 3.0 0.00 0.00 0.00 71 1009.6
20260505195042 85 266 0.0 7.0 0.00 0.00 0.00 70 1009.6
20260505194549 85 0 0.0 7.0 0.00 0.00 0.00 71 1009.6
20260505194040 85 226 1.0 6.0 0.00 0.00 0.00 71 1009.6
20260505193539 84 101 0.0 6.0 0.00 0.00 0.00 73 1009.6
20260505193100 84 0 1.0 6.0 0.00 0.00 0.00 73 1009.8
20260505192541 83 22 0.0 5.0 0.00 0.00 0.00 74 1009.9
20260505192039 83 224 0.0 5.0 0.00 0.00 0.00 74 1010.0
20260505191642 82 200 1.0 5.0 0.00 0.00 0.00 76 1009.9
20260505191042 82 0 1.0 8.0 0.00 0.00 0.00 76 1010.0
20260505190543 82 184 3.0 8.0 0.00 0.00 0.00 76 1010.1
20260505190048 82 0 0.0 5.0 0.00 0.00 0.00 76 1010.2
20260505185539 82 0 0.0 6.0 0.00 0.00 0.00 76 1010.4
20260505185039 81 181 3.0 6.0 0.00 0.00 0.00 76 1010.4
20260505184548 82 178 1.0 5.0 0.00 0.00 0.00 76 1010.4
20260505184040 82 119 2.0 5.0 0.00 0.00 0.00 75 1010.5
20260505183541 82 0 0.0 1.0 0.00 0.00 0.00 76 1010.6
20260505183050 81 0 0.0 1.0 0.00 0.00 0.00 77 1010.4
20260505182540 82 251 0.0 6.0 0.00 0.00 0.00 76 1010.5
20260505182039 81 0 0.0 6.0 0.00 0.00 0.00 77 1010.7
20260505181556 81 0 0.0 5.0 0.00 0.00 0.00 78 1010.6
20260505181038 80 0 0.0 5.0 0.00 0.00 0.00 79 1010.7
20260505180538 80 0 0.0 7.0 0.00 0.00 0.00 79 1010.8
20260505180049 79 202 1.0 7.0 0.00 0.00 0.00 80 1010.8
20260505175539 79 0 0.0 4.0 0.00 0.00 0.00 81 1010.9
20260505175040 79 265 0.0 1.0 0.00 0.00 0.00 81 1010.8
20260505174551 78 260 0.0 1.0 0.00 0.00 0.00 81 1010.9
20260505174040 78 0 0.0 4.0 0.00 0.00 0.00 81 1011.0
20260505173538 78 0 0.0 8.0 0.00 0.00 0.00 81 1010.9
20260505173051 78 285 1.0 8.0 0.00 0.00 0.00 82 1010.9
20260505172539 78 225 0.0 2.0 0.00 0.00 0.00 82 1011.0
20260505172039 78 239 0.0 2.0 0.00 0.00 0.00 83 1011.1
20260505171550 77 0 0.0 2.0 0.00 0.00 0.00 83 1011.0
20260505171037 77 0 0.0 1.0 0.00 0.00 0.00 84 1010.9
20260505170540 76 0 0.0 2.0 0.00 0.00 0.00 85 1011.1
20260505170052 76 0 0.0 2.0 0.00 0.00 0.00 85 1011.0
20260505165543 76 0 0.0 7.0 0.00 0.00 0.00 85 1011.0
20260505165039 76 0 1.0 7.0 0.00 0.00 0.00 85 1010.9
20260505164551 76 0 0.0 4.0 0.00 0.00 0.00 85 1011.0
20260505164038 76 264 0.0 5.0 0.00 0.00 0.00 86 1011.1
20260505163539 75 0 0.0 5.0 0.00 0.00 0.00 86 1010.9
20260505163047 75 0 0.0 5.0 0.00 0.00 0.00 86 1010.9
20260505162539 75 0 0.0 3.0 0.00 0.00 0.00 87 1011.0
20260505162039 75 0 0.0 3.0 0.00 0.00 0.00 87 1011.1
20260505161548 74 0 0.0 3.0 0.00 0.00 0.00 88 1011.1
20260505161037 74 0 0.0 3.0 0.00 0.00 0.00 88 1011.2
20260505160540 74 0 0.0 1.0 0.00 0.00 0.00 89 1011.2
20260505153052 73 0 0.0 4.0 0.00 0.00 0.00 90 1011.1
20260505152539 73 274 0.0 4.0 0.00 0.00 0.00 90 1011.1
20260505152040 73 0 0.0 4.0 0.00 0.00 0.00 90 1010.9
20260505151555 73 0 0.0 4.0 0.00 0.00 0.00 90 1011.0
20260505151040 73 0 1.0 7.0 0.00 0.00 0.00 90 1011.0
20260505150539 72 0 1.0 7.0 0.00 0.00 0.00 90 1011.0
20260505150106 72 0 1.0 4.0 0.00 0.00 0.00 91 1011.0
20260505140539 0 0.0 0.0 0.00 0.00 0.00 1011.1
20260505125041 0 0.0 0.0 0.00 0.00 0.00 1011.0
20260505124553 0 0.0 0.0 0.00 0.00 0.00 1010.7
20260505124041 0 0.0 0.0 0.00 0.00 0.00 1010.8
20260505123540 0 0.0 0.0 0.00 0.00 0.00 1010.5
20260505123054 0 0.0 0.0 0.00 0.00 0.00 1010.5
20260505122540 0 0.0 0.0 0.00 0.00 0.00 1010.6
20260505122040 0 0.0 0.0 0.00 0.00 0.00 1010.4
20260505121545 0 0.0 0.0 0.00 0.00 0.00 1010.3
20260505121039 0 0.0 0.0 0.00 0.00 0.00 1010.3
20260505120539 0 0.0 0.0 0.00 0.00 0.00 1010.3
20260505120057 0 0.0 0.0 0.00 0.00 0.00 1010.1
20260505115540 0 0.0 0.0 0.00 0.00 0.00 1010.0
20260505115040 0 0.0 0.0 0.00 0.00 0.00 1010.1
20260505114551 0 0.0 0.0 0.00 0.00 0.00 1010.0
20260505114041 0 0.0 0.0 0.00 0.00 0.00 1010.0
20260505113539 0 0.0 0.0 0.00 0.00 0.00 1009.9
20260505113044 0 0.0 0.0 0.00 0.00 0.00 1009.9
20260505112540 0 0.0 0.0 0.00 0.00 0.00 1009.9
20260505112039 0 0.0 0.0 0.00 0.00 0.00 1009.9
20260505111549 0 0.0 0.0 0.00 0.00 0.00 1009.9
20260505111040 0 0.0 0.0 0.00 0.00 0.00 1009.9
20260505110540 0 0.0 0.0 0.00 0.00 0.00 1009.9
20260505102040 0 0.0 0.0 0.00 0.00 0.00 1010.0
20260505101549 0 0.0 0.0 0.00 0.00 0.00 1009.9
20260505101041 0 0.0 0.0 0.00 0.00 0.00 1010.1
20260505100542 0 0.0 0.0 0.00 0.00 0.00 1010.0
20260505100047 0 0.0 0.0 0.00 0.00 0.00 1010.0
20260505095542 0 0.0 0.0 0.00 0.00 0.00 1010.0
20260505095038 0 0.0 0.0 0.00 0.00 0.00 1010.1
20260505094601 0 0.0 0.0 0.00 0.00 0.00 1010.2
20260505094037 0 0.0 0.0 0.00 0.00 0.00 1010.2
20260505093542 0 0.0 0.0 0.00 0.00 0.00 1010.3
20260505093053 0 1.0 6.0 0.00 0.00 0.00 93 1010.3
20260505092541 0 212 2.0 6.0 0.00 0.00 0.00 93 1010.3
20260505092037 68 236 1.0 5.0 0.00 0.00 0.00 93 1010.3
20260505091541 69 0 1.0 3.0 0.00 0.00 0.00 93 1010.2
20260505091038 69 245 0.0 2.0 0.00 0.00 0.00 93 1010.3
20260505090538 69 224 0.0 2.0 0.00 0.00 0.00 93 1010.3
20260505090058 69 231 0.0 2.0 0.00 0.00 0.00 93 1010.3
20260505085539 69 0 0.0 8.0 0.00 0.00 0.00 93 1010.3
20260505085040 69 0 0.0 8.0 0.00 0.00 0.00 93 1010.4
20260505084554 69 243 1.0 7.0 0.00 0.00 0.00 93 1010.3
20260505084039 69 0 3.0 9.0 0.00 0.00 0.00 92 1010.2
20260505083539 69 0 2.0 9.0 0.00 0.00 0.00 92 1010.4
20260505083058 69 255 0.0 6.0 0.00 0.00 0.00 92 1010.5
20260505082539 69 231 1.0 6.0 0.00 0.00 0.00 92 1010.7
20260505082039 69 251 1.0 8.0 0.00 0.00 0.00 92 1010.9
20260505081555 69 0 0.0 8.0 0.00 0.00 0.00 92 1011.0
20260505081037 69 143 1.0 8.0 0.00 0.00 0.00 92 1010.9
20260505080539 69 0 3.0 7.0 0.00 0.00 0.00 92 1010.8
20260505080051 69 0 1.0 6.0 0.00 0.00 0.00 92 1010.8
20260505075540 69 244 2.0 7.0 0.00 0.00 0.00 92 1010.9
20260505075039 69 208 0.0 7.0 0.00 0.00 0.00 92 1011.1
20260505074548 69 211 1.0 6.0 0.00 0.00 0.00 92 1011.0
20260505074040 69 0 2.0 5.0 0.00 0.00 0.00 91 1011.2
20260505073539 69 0 0.0 7.0 0.00 0.00 0.00 91 1011.2
20260505073048 69 189 1.0 7.0 0.00 0.00 0.00 91 1011.3
20260505072540 69 231 1.0 6.0 0.00 0.00 0.00 91 1011.3
20260505072039 69 0 2.0 6.0 0.00 0.00 0.00 91 1011.4
20260505071552 69 202 1.0 7.0 0.00 0.00 0.00 91 1011.5
20260505071038 70 177 2.0 9.0 0.00 0.00 0.00 91 1011.7
20260505070539 69 222 2.0 9.0 0.00 0.00 0.00 91 1011.7
20260505070054 70 216 0.0 6.0 0.00 0.00 0.00 91 1011.6
20260505065537 69 194 2.0 6.0 0.00 0.00 0.00 91 1011.7
20260505065038 69 0 1.0 6.0 0.00 0.00 0.00 91 1011.8
20260505064550 69 203 1.0 7.0 0.00 0.00 0.00 91 1011.9
20260505064038 69 229 1.0 7.0 0.00 0.00 0.00 91 1012.0
20260505063540 69 204 0.0 7.0 0.00 0.00 0.00 91 1012.0
20260505063049 69 0 0.0 7.0 0.00 0.00 0.00 90 1011.9
20260505062540 70 204 0.0 5.0 0.00 0.00 0.00 90 1012.0
20260505062042 70 188 0.0 5.0 0.00 0.00 0.00 90 1012.0
20260505061551 70 209 1.0 5.0 0.00 0.00 0.00 90 1012.0
20260505061041 70 223 1.0 8.0 0.00 0.00 0.00 90 1011.9
20260505060540 70 215 2.0 8.0 0.00 0.00 0.00 89 1012.1
20260505060052 70 158 2.0 8.0 0.00 0.00 0.00 89 1012.2
20260505055541 70 0 1.0 6.0 0.00 0.00 0.00 89 1012.2